Location: Capelle
(50.3413°N, 1.9974°E)
Time: 23:20:44
(UTC+00:00)

USA 59 Rocket - Pass Details

Date: 12 January 2026
Orbit: 369 x 1671 km, 63.3° (Epoch: 17 February)

Event Time Altitude Azimuth Distance (km) Brightness Sun altitude
Rises 17:12:17 0° 320° (NW) 2,236 3.2 -9.2°
Reaches altitude 10° 17:15:39 10° 4° (N) 1,450 1.7 -9.7°
Maximum altitude 17:16:25 11° 18° (NNE) 1,437 1.6 -9.8°
Drops below altitude 10° 17:17:12 10° 33° (NNE) 1,506 1.6 -9.9°
Enters shadow 17:17:13 10° 33° (NNE) 1,507 1.6 -9.9°
